This is the latest recevied weather packets stored in our database for station/object N2PUI. If no packets are shown the sender has not sent any weather packets the latest 10 day(s).
| Time | Temp. | Humidity | Pressure | Rain* | Wind** | Luminosity | Snow |
|---|---|---|---|---|---|---|---|
| 1777722086 | 5° C | 79% | 1014.7 hPa | 0 mm | - | 151 W/m² | - |
| 1777721783 | 5° C | 80% | 1014.8 hPa | 0 mm | - | 177 W/m² | - |
| 1777721481 | 4.44° C | 81% | 1014.6 hPa | 0 mm | - | 128 W/m² | - |
| 1777721179 | 4.44° C | 82% | 1014.5 hPa | 0 mm | - | 97 W/m² | - |
| 1777720876 | 3.89° C | 83% | 1014.5 hPa | 0 mm | - | 85 W/m² | - |
| 1777720574 | 3.89° C | 83% | 1014.5 hPa | 0 mm | - | 46 W/m² | - |
| 1777720271 | 3.89° C | 84% | 1014.5 hPa | 0 mm | - | 44 W/m² | - |
| 1777719969 | 3.89° C | 85% | 1014.4 hPa | 0 mm | - | 41 W/m² | - |
| 1777719666 | 3.89° C | 85% | 1014.5 hPa | 0 mm | - | 46 W/m² | - |
| 1777719363 | 3.89° C | 86% | 1014.4 hPa | 0 mm | - | 46 W/m² | - |
| 1777719060 | 3.89° C | 86% | 1014.2 hPa | 0 mm | - | 51 W/m² | - |
| 1777718757 | 3.89° C | 86% | 1014 hPa | 0 mm | - | 46 W/m² | - |
| 1777718455 | 3.89° C | 86% | 1014.1 hPa | 0 mm | - | 36 W/m² | - |
| 1777718152 | 3.89° C | 87% | 1014.1 hPa | 0 mm | - | 30 W/m² | - |
| 1777717850 | 3.89° C | 87% | 1013.9 hPa | 0 mm | - | 25 W/m² | - |
| 1777717546 | 3.89° C | 88% | 1013.8 hPa | 0 mm | - | 21 W/m² | - |
| 1777717243 | 3.89° C | 89% | 1014.1 hPa | 0 mm | - | 12 W/m² | - |
| 1777716941 | 3.89° C | 89% | 1014 hPa | 0 mm | - | 8 W/m² | - |
| 1777716639 | 3.89° C | 90% | 1013.9 hPa | 0 mm | - | 4 W/m² | - |
| 1777716337 | 3.89° C | 90% | 1013.8 hPa | 0 mm | - | 1 W/m² | - |
| 1777716035 | 3.89° C | 90% | 1013.9 hPa | 0 mm | - | 0 W/m² | - |
| 1777715733 | 3.89° C | 90% | 1013.7 hPa | 0 mm | - | 0 W/m² | - |
| 1777715431 | 3.89° C | 90% | 1013.5 hPa | 0 mm | - | 0 W/m² | - |
| 1777715127 | 3.89° C | 90% | 1013.9 hPa | 0 mm | - | 0 W/m² | - |
| 1777714826 | 3.89° C | 90% | 1013.6 hPa | 0 mm | - | 0 W/m² | - |
* Rain latest hour (hover to see other rain measurements)
** Current wind speed in m/s (hover to see current wind gust speed)